| time (UTC) | temp C | wind direction | speed KPH | gust KPH | rain 1hr cm | rain 24hr cm | rain mn cm | humidity % | barometer mb |
| 20260507192242 | 17 | 308 | 4.8 | 6.4 | 0.00 | 2.13 | 2.13 | 88 | 999.7 |
| 20260507191738 | 17 | 130 | 0.0 | 0.0 | 0.00 | 2.13 | 2.13 | 89 | 999.3 |
| 20260507191235 | 17 | 279 | 1.6 | 4.8 | 0.00 | 2.13 | 2.13 | 89 | 999.6 |
| 20260507190732 | 17 | 247 | 8.0 | 11.3 | 0.00 | 2.13 | 2.13 | 89 | 1000.1 |
| 20260507190231 | 17 | 30 | 4.8 | 6.4 | 0.00 | 2.13 | 2.13 | 89 | 1000.0 |
| 20260507185729 | 17 | 159 | 1.6 | 3.2 | 0.00 | 2.13 | 2.13 | 90 | 1000.0 |
| 20260507185225 | 17 | 356 | 4.8 | 4.8 | 0.00 | 2.13 | 2.13 | 89 | 1000.0 |
| 20260507184723 | 18 | 283 | 3.2 | 3.2 | 0.00 | 2.13 | 2.13 | 89 | 1000.4 |
| 20260507184221 | 18 | 311 | 1.6 | 3.2 | 0.00 | 2.13 | 2.13 | 90 | 1000.0 |
| 20260507183717 | 18 | 349 | 1.6 | 3.2 | 0.00 | 2.13 | 2.13 | 90 | 999.8 |
| 20260507183214 | 18 | 121 | 1.6 | 1.6 | 0.00 | 2.13 | 2.13 | 90 | 999.8 |
| 20260507182711 | 18 | 173 | 4.8 | 6.4 | 0.00 | 2.13 | 2.13 | 91 | 999.4 |
| 20260507182206 | 18 | 330 | 6.4 | 11.3 | 0.00 | 2.13 | 2.13 | 91 | 999.2 |
| 20260507181703 | 18 | 293 | 3.2 | 4.8 | 0.00 | 2.13 | 2.13 | 91 | 998.9 |
| 20260507181200 | 18 | 233 | 1.6 | 3.2 | 0.00 | 2.13 | 2.13 | 91 | 998.4 |
| 20260507180656 | 18 | 143 | 1.6 | 3.2 | 0.00 | 2.13 | 2.13 | 90 | 998.0 |
| 20260507180154 | 18 | 86 | 1.6 | 3.2 | 0.00 | 2.13 | 2.13 | 90 | 997.9 |
| 20260507175649 | 18 | 144 | 0.0 | 0.0 | 0.00 | 2.13 | 2.13 | 90 | 998.3 |
| 20260507175146 | 18 | 63 | 6.4 | 11.3 | 0.00 | 2.13 | 2.13 | 91 | 998.6 |
| 20260507174643 | 18 | 137 | 1.6 | 1.6 | 0.00 | 2.13 | 2.13 | 91 | 998.9 |
| 20260507174142 | 18 | 135 | 0.0 | 0.0 | 0.00 | 2.13 | 2.13 | 91 | 998.7 |
| 20260507173639 | 18 | 94 | 1.6 | 3.2 | 0.00 | 2.13 | 2.13 | 92 | 998.3 |
| 20260507173136 | 18 | 334 | 3.2 | 3.2 | 0.00 | 2.13 | 2.13 | 92 | 998.5 |
| 20260507172632 | 17 | 79 | 1.6 | 3.2 | 0.00 | 2.13 | 2.13 | 92 | 998.3 |
| 20260507172130 | 17 | 56 | 6.4 | 11.3 | 0.00 | 2.13 | 2.13 | 92 | 998.2 |
| 20260507171624 | 17 | 65 | 0.0 | 1.6 | 0.00 | 2.13 | 2.13 | 92 | 998.2 |
| 20260507171121 | 17 | 65 | 4.8 | 4.8 | 0.00 | 2.13 | 2.13 | 92 | 998.9 |
| 20260507170618 | 17 | 359 | 8.0 | 11.3 | 0.00 | 2.13 | 2.13 | 92 | 999.0 |
| 20260507170115 | 17 | 357 | 4.8 | 6.4 | 0.00 | 2.13 | 2.13 | 93 | 999.8 |
| 20260507165611 | 17 | 294 | 4.8 | 4.8 | 0.00 | 2.13 | 2.13 | 93 | 999.6 |
| 20260507165108 | 17 | 34 | 3.2 | 6.4 | 0.00 | 2.13 | 2.13 | 93 | 999.4 |
| 20260507164603 | 17 | 134 | 0.0 | 1.6 | 0.00 | 2.13 | 2.13 | 93 | 999.4 |
| 20260507164100 | 17 | 268 | 1.6 | 3.2 | 0.00 | 2.13 | 2.13 | 93 | 999.7 |
| 20260507163558 | 17 | 322 | 6.4 | 9.7 | 0.00 | 2.13 | 2.13 | 94 | 999.9 |
| 20260507163056 | 17 | 74 | 3.2 | 4.8 | 0.00 | 2.13 | 2.13 | 94 | 999.9 |
| 20260507162555 | 17 | 103 | 3.2 | 3.2 | 0.00 | 2.13 | 2.13 | 95 | 1000.0 |
| 20260507162053 | 17 | 308 | 8.0 | 9.7 | 0.00 | 2.13 | 2.13 | 94 | 999.9 |
| 20260507161549 | 17 | 133 | 0.0 | 0.0 | 0.00 | 2.13 | 2.13 | 95 | 999.7 |
| 20260507161046 | 17 | 306 | 4.8 | 4.8 | 0.00 | 2.13 | 2.13 | 95 | 1000.0 |
| 20260507160542 | 17 | 144 | 1.6 | 1.6 | 0.00 | 2.13 | 2.13 | 95 | 1000.4 |
| 20260507160038 | 17 | 108 | 1.6 | 3.2 | 0.00 | 2.13 | 2.13 | 94 | 1000.7 |
| 20260507155534 | 17 | 256 | 3.2 | 3.2 | 0.00 | 2.13 | 2.13 | 94 | 1000.8 |
| 20260507155031 | 17 | 135 | 0.0 | 0.0 | 0.18 | 2.13 | 2.13 | 94 | 1001.0 |
| 20260507154528 | 17 | 355 | 8.0 | 16.1 | 0.18 | 2.13 | 2.13 | 95 | 1001.2 |
| 20260507154025 | 17 | 317 | 8.0 | 9.7 | 0.00 | 2.11 | 2.11 | 95 | 1001.1 |
| 20260507153522 | 17 | 137 | 0.0 | 1.6 | 0.18 | 2.11 | 2.11 | 95 | 1001.1 |
| 20260507153018 | 17 | 192 | 1.6 | 1.6 | 0.18 | 2.11 | 2.11 | 95 | 1001.0 |
| 20260507152514 | 17 | 141 | 3.2 | 4.8 | 0.00 | 2.08 | 2.08 | 95 | 1001.1 |
| 20260507152011 | 17 | 140 | 0.0 | 1.6 | 0.00 | 2.08 | 2.08 | 96 | 1001.2 |
| 20260507151507 | 18 | 271 | 1.6 | 1.6 | 0.00 | 2.08 | 2.08 | 96 | 1001.6 |
| 20260507151004 | 18 | 244 | 3.2 | 3.2 | 0.00 | 2.08 | 2.08 | 96 | 1001.9 |
| 20260507150501 | 17 | 137 | 1.6 | 3.2 | 0.00 | 2.08 | 2.08 | 96 | 1002.0 |
| 20260507145957 | 17 | 106 | 1.6 | 1.6 | 0.00 | 2.08 | 2.08 | 96 | 1001.7 |
| 20260507145452 | 17 | 133 | 0.0 | 1.6 | 0.00 | 2.08 | 2.08 | 96 | 1001.6 |
| 20260507144950 | 17 | 106 | 1.6 | 3.2 | 0.00 | 2.08 | 2.08 | 96 | 1001.6 |
| 20260507144447 | 17 | 102 | 1.6 | 3.2 | 0.00 | 2.08 | 2.08 | 96 | 1001.2 |
| 20260507143944 | 17 | 112 | 1.6 | 1.6 | 0.00 | 2.08 | 2.08 | 96 | 1001.5 |
| 20260507143441 | 17 | 12 | 4.8 | 6.4 | 0.00 | 2.08 | 2.08 | 96 | 1001.6 |
| 20260507142938 | 17 | 66 | 0.0 | 1.6 | 0.00 | 2.08 | 2.08 | 97 | 1001.5 |
| 20260507142433 | 17 | 148 | 0.0 | 0.0 | 0.00 | 2.08 | 2.08 | 97 | 1001.1 |
| 20260507141931 | 17 | 130 | 0.0 | 0.0 | 0.00 | 2.08 | 2.08 | 96 | 1001.3 |
| 20260507141427 | 17 | 185 | 1.6 | 1.6 | 0.13 | 2.08 | 2.08 | 96 | 1001.6 |
| 20260507140924 | 17 | 315 | 3.2 | 6.4 | 0.13 | 2.08 | 2.08 | 96 | 1001.3 |
| 20260507140420 | 17 | 296 | 12.9 | 14.5 | 0.18 | 2.06 | 2.06 | 96 | 1001.1 |
| 20260507135918 | 17 | 149 | 0.0 | 0.0 | 0.30 | 2.06 | 2.06 | 96 | 1000.3 |
| 20260507135414 | 17 | 138 | 3.2 | 6.4 | 0.43 | 2.03 | 2.03 | 96 | 1000.8 |
| 20260507134912 | 17 | 171 | 1.6 | 1.6 | 0.48 | 2.01 | 2.01 | 96 | 1001.4 |
| 20260507134408 | 17 | 313 | 4.8 | 4.8 | 0.43 | 1.98 | 1.98 | 95 | 1001.9 |
| 20260507133904 | 18 | 344 | 3.2 | 9.7 | 0.30 | 1.93 | 1.93 | 95 | 1002.4 |
| 20260507133400 | 18 | 322 | 11.3 | 12.9 | 0.18 | 1.91 | 1.91 | 94 | 1002.4 |
| 20260507132859 | 18 | 290 | 6.4 | 9.7 | 0.00 | 1.88 | 1.88 | 93 | 1001.9 |
| 20260507132355 | 18 | 6 | 3.2 | 3.2 | 0.00 | 1.88 | 1.88 | 93 | 1002.0 |
| 20260507131852 | 18 | 0 | 4.8 | 6.4 | 0.00 | 1.88 | 1.88 | 94 | 1001.1 |
| 20260507131349 | 18 | 29 | 1.6 | 1.6 | 0.00 | 1.88 | 1.88 | 94 | 1000.2 |
| 20260507130846 | 18 | 143 | 0.0 | 0.0 | 0.00 | 1.88 | 1.88 | 94 | 1000.8 |
| 20260507130343 | 18 | 144 | 3.2 | 4.8 | 0.00 | 1.88 | 1.88 | 93 | 1001.2 |
| 20260507125842 | 18 | 202 | 4.8 | 6.4 | 0.00 | 1.88 | 1.88 | 93 | 1002.0 |
| 20260507125339 | 18 | 317 | 6.4 | 6.4 | 0.00 | 1.88 | 1.88 | 93 | 1002.3 |
| 20260507124836 | 18 | 0 | 4.8 | 4.8 | 0.00 | 1.88 | 1.88 | 93 | 1002.7 |
| 20260507124332 | 18 | 11 | 6.4 | 9.7 | 0.00 | 1.88 | 1.88 | 92 | 1002.9 |
| 20260507123831 | 18 | 41 | 1.6 | 3.2 | 0.00 | 1.88 | 1.88 | 93 | 1001.0 |
| 20260507123328 | 18 | 204 | 3.2 | 3.2 | 0.00 | 1.88 | 1.88 | 92 | 1001.6 |
| 20260507122824 | 18 | 150 | 1.6 | 1.6 | 0.00 | 1.88 | 1.88 | 92 | 1001.2 |
| 20260507122319 | 18 | 216 | 9.7 | 12.9 | 0.00 | 1.88 | 1.88 | 93 | 1000.7 |
| 20260507121816 | 17 | 311 | 3.2 | 9.7 | 0.00 | 1.88 | 1.88 | 94 | 999.9 |
| 20260507121312 | 17 | 164 | 1.6 | 3.2 | 0.00 | 1.88 | 1.88 | 94 | 999.1 |
| 20260507120808 | 17 | 266 | 3.2 | 4.8 | 0.00 | 1.88 | 1.88 | 94 | 999.3 |
| 20260507120305 | 17 | 332 | 8.0 | 11.3 | 0.00 | 1.88 | 1.88 | 94 | 999.4 |
| 20260507115801 | 17 | 311 | 4.8 | 6.4 | 0.00 | 1.88 | 1.88 | 94 | 998.8 |
| 20260507115256 | 17 | 2 | 1.6 | 3.2 | 0.00 | 1.88 | 1.88 | 95 | 998.1 |
| 20260507114752 | 17 | 352 | 3.2 | 3.2 | 0.00 | 1.88 | 1.88 | 95 | 997.5 |
| 20260507114250 | 17 | 76 | 1.6 | 1.6 | 0.00 | 1.88 | 1.88 | 95 | 997.7 |
| 20260507113748 | 17 | 194 | 0.0 | 1.6 | 0.00 | 1.88 | 1.88 | 95 | 998.0 |
| 20260507113244 | 17 | 138 | 4.8 | 6.4 | 0.00 | 1.88 | 1.88 | 95 | 997.9 |
| 20260507112742 | 17 | 121 | 4.8 | 9.7 | 0.00 | 1.88 | 1.88 | 95 | 998.2 |
| 20260507112238 | 17 | 40 | 3.2 | 6.4 | 0.00 | 1.88 | 1.88 | 95 | 998.5 |
| 20260507111737 | 17 | 39 | 3.2 | 4.8 | 0.00 | 1.88 | 1.88 | 95 | 998.1 |
| 20260507111233 | 17 | 126 | 1.6 | 3.2 | 0.00 | 1.88 | 1.88 | 94 | 998.0 |
| 20260507110728 | 17 | 27 | 1.6 | 3.2 | 0.13 | 1.88 | 1.88 | 95 | 997.3 |
| 20260507110225 | 17 | 36 | 1.6 | 4.8 | 0.13 | 1.88 | 1.88 | 95 | 996.9 |
| 20260507105722 | 17 | 47 | 3.2 | 4.8 | 0.13 | 1.88 | 1.88 | 95 | 997.0 |
| 20260507105218 | 17 | 142 | 0.0 | 0.0 | 0.00 | 1.85 | 1.85 | 95 | 997.1 |
| 20260507104716 | 17 | 78 | 0.0 | 0.0 | 0.00 | 1.85 | 1.85 | 95 | 997.4 |
| 20260507104212 | 17 | 33 | 1.6 | 3.2 | 0.00 | 1.85 | 1.85 | 95 | 997.3 |
| 20260507103708 | 17 | 321 | 6.4 | 9.7 | 0.00 | 1.85 | 1.85 | 95 | 997.1 |
| 20260507103205 | 17 | 127 | 0.0 | 1.6 | 0.00 | 1.85 | 1.85 | 95 | 996.9 |
| 20260507102701 | 17 | 110 | 3.2 | 3.2 | 0.00 | 1.85 | 1.85 | 95 | 996.4 |
| 20260507102158 | 17 | 91 | 6.4 | 9.7 | 0.00 | 1.85 | 1.85 | 95 | 996.6 |
| 20260507101653 | 17 | 4 | 6.4 | 6.4 | 0.00 | 1.85 | 1.85 | 95 | 996.6 |
| 20260507101149 | 17 | 117 | 1.6 | 1.6 | 0.18 | 1.85 | 1.85 | 96 | 996.5 |
| 20260507100647 | 17 | 110 | 0.0 | 1.6 | 0.30 | 1.85 | 1.85 | 96 | 997.7 |
| 20260507100145 | 17 | 108 | 8.0 | 11.3 | 0.30 | 1.83 | 1.83 | 96 | 998.3 |
| 20260507095643 | 18 | 132 | 0.0 | 0.0 | 0.30 | 1.83 | 1.83 | 96 | 999.6 |
| 20260507095139 | 18 | 107 | 0.0 | 0.0 | 0.18 | 1.78 | 1.78 | 95 | 999.5 |
| 20260507094635 | 18 | 104 | 1.6 | 1.6 | 0.00 | 1.75 | 1.75 | 94 | 999.4 |
| 20260507094132 | 18 | 46 | 4.8 | 4.8 | 0.00 | 1.75 | 1.75 | 94 | 999.9 |
| 20260507093630 | 18 | 104 | 1.6 | 1.6 | 0.00 | 1.75 | 1.75 | 94 | 1000.1 |
| 20260507093128 | 18 | 69 | 3.2 | 3.2 | 0.13 | 1.75 | 1.75 | 94 | 1000.0 |
| 20260507092625 | 17 | 147 | 0.0 | 0.0 | 0.13 | 1.75 | 1.75 | 94 | 999.9 |
| 20260507092121 | 18 | 132 | 0.0 | 0.0 | 0.00 | 1.73 | 1.73 | 94 | 999.0 |
| 20260507091618 | 18 | 194 | 3.2 | 3.2 | 0.00 | 1.73 | 1.73 | 94 | 997.1 |
| 20260507091114 | 18 | 138 | 4.8 | 4.8 | 0.00 | 1.73 | 1.73 | 93 | 997.3 |
| 20260507090610 | 18 | 253 | 4.8 | 9.7 | 0.18 | 1.73 | 1.73 | 92 | 998.7 |
| 20260507090107 | 18 | 182 | 3.2 | 4.8 | 0.18 | 1.73 | 1.73 | 92 | 999.4 |
| 20260507085604 | 18 | 172 | 6.4 | 6.4 | 0.00 | 1.70 | 1.70 | 92 | 999.6 |
| 20260507085101 | 18 | 240 | 6.4 | 9.7 | 0.13 | 1.70 | 1.70 | 92 | 999.8 |
| 20260507084557 | 18 | 235 | 6.4 | 9.7 | 0.30 | 1.70 | 1.70 | 92 | 1000.2 |
| 20260507084055 | 18 | 237 | 8.0 | 11.3 | 0.30 | 1.68 | 1.68 | 91 | 1000.3 |
| 20260507083551 | 19 | 259 | 9.7 | 12.9 | 0.13 | 1.65 | 1.65 | 89 | 1000.9 |
| 20260507083048 | 19 | 235 | 11.3 | 17.7 | 0.00 | 1.63 | 1.63 | 88 | 1001.0 |
| 20260507082544 | 19 | 245 | 11.3 | 12.9 | 0.18 | 1.63 | 1.63 | 91 | 1001.0 |
| 20260507082041 | 19 | 279 | 16.1 | 24.1 | 0.18 | 1.63 | 1.63 | 91 | 1001.3 |
| 20260507081537 | 20 | 266 | 3.2 | 6.4 | 0.13 | 1.60 | 1.60 | 92 | 1001.6 |
| 20260507081034 | 20 | 250 | 6.4 | 9.7 | 0.30 | 1.60 | 1.60 | 92 | 1001.6 |
| 20260507080529 | 20 | 341 | 12.9 | 17.7 | 0.30 | 1.57 | 1.57 | 92 | 1001.6 |
| 20260507080026 | 20 | 178 | 6.4 | 11.3 | 0.30 | 1.55 | 1.55 | 90 | 1002.2 |
| 20260507075521 | 20 | 265 | 6.4 | 9.7 | 0.18 | 1.52 | 1.52 | 90 | 1002.3 |
| 20260507075018 | 20 | 175 | 4.8 | 9.7 | 0.00 | 1.50 | 1.50 | 92 | 1002.3 |
| 20260507074515 | 20 | 258 | 6.4 | 11.3 | 0.13 | 1.50 | 1.50 | 93 | 1002.5 |
| 20260507074014 | 19 | 257 | 3.2 | 3.2 | 0.13 | 1.50 | 1.50 | 95 | 1002.8 |
| 20260507073509 | 19 | 307 | 6.4 | 9.7 | 0.00 | 1.47 | 1.47 | 97 | 1002.5 |
| 20260507073006 | 19 | 262 | 3.2 | 3.2 | 0.18 | 1.47 | 1.47 | 97 | 1002.1 |
| 20260507072503 | 19 | 304 | 3.2 | 4.8 | 0.18 | 1.47 | 1.47 | 96 | 1002.2 |
| 20260507072000 | 19 | 121 | 1.6 | 1.6 | 0.18 | 1.47 | 1.47 | 97 | 1002.0 |
| 20260507071457 | 19 | 265 | 0.0 | 1.6 | 0.00 | 1.45 | 1.45 | 97 | 1001.6 |
| 20260507070954 | 19 | 142 | 0.0 | 1.6 | 0.00 | 1.45 | 1.45 | 97 | 1000.9 |
| 20260507070451 | 19 | 320 | 4.8 | 4.8 | 0.00 | 1.45 | 1.45 | 97 | 1001.3 |
| 20260507065948 | 19 | 161 | 3.2 | 4.8 | 0.18 | 1.45 | 1.45 | 97 | 1001.2 |
| 20260507065445 | 19 | 206 | 4.8 | 6.4 | 0.18 | 1.45 | 1.45 | 97 | 1001.7 |
| 20260507064942 | 19 | 307 | 6.4 | 9.7 | 0.13 | 1.42 | 1.42 | 97 | 1001.8 |
| 20260507064440 | 19 | 319 | 3.2 | 4.8 | 0.43 | 1.42 | 1.42 | 97 | 1002.8 |
| 20260507063938 | 19 | 254 | 4.8 | 4.8 | 1.07 | 1.40 | 1.40 | 97 | 1003.5 |
| 20260507063434 | 19 | 124 | 3.2 | 4.8 | 2.46 | 1.35 | 1.35 | 98 | 1002.9 |
| 20260507062932 | 19 | 249 | 4.8 | 9.7 | 2.87 | 1.27 | 1.27 | 98 | 1002.9 |
| 20260507062429 | 19 | 264 | 9.7 | 22.5 | 3.66 | 0.99 | 0.99 | 97 | 1003.5 |
| 20260507061926 | 20 | 269 | 8.0 | 12.9 | 3.17 | 0.76 | 0.76 | 97 | 1003.5 |
| 20260507061424 | 20 | 319 | 3.2 | 9.7 | 1.19 | 0.38 | 0.38 | 96 | 1001.9 |
| 20260507060922 | 20 | 298 | 6.4 | 11.3 | 0.36 | 0.20 | 0.20 | 96 | 1001.1 |
| 20260507060418 | 20 | 297 | 4.8 | 6.4 | 0.30 | 0.18 | 0.18 | 95 | 1001.1 |
| 20260507055915 | 20 | 343 | 3.2 | 6.4 | 0.30 | 0.15 | 0.15 | 95 | 1000.9 |
| 20260507055410 | 20 | 169 | 4.8 | 6.4 | 0.79 | 0.13 | 0.13 | 93 | 1001.4 |
| 20260507054908 | 20 | 208 | 8.0 | 14.5 | 0.61 | 0.10 | 0.10 | 94 | 1001.4 |
| 20260507054404 | 21 | 275 | 9.7 | 12.9 | 0.00 | 0.00 | 0.00 | 85 | 1001.7 |
| 20260507053901 | 21 | 264 | 4.8 | 6.4 | 0.00 | 0.00 | 0.00 | 84 | 1001.9 |
| 20260507053359 | 22 | 260 | 16.1 | 22.5 | 0.00 | 0.00 | 0.00 | 83 | 1002.2 |
| 20260507052857 | 22 | 247 | 6.4 | 6.4 | 0.00 | 0.00 | 0.00 | 82 | 1002.1 |
| 20260507052354 | 22 | 277 | 4.8 | 9.7 | 0.00 | 0.00 | 0.00 | 82 | 1001.6 |
| 20260507051851 | 25 | 224 | 6.4 | 11.3 | 0.00 | 0.00 | 0.00 | 78 | 1001.5 |
| 20260507051349 | 26 | 227 | 3.2 | 4.8 | 0.00 | 0.00 | 0.00 | 82 | 1000.5 |
| 20260507050845 | 26 | 337 | 3.2 | 9.7 | 0.00 | 0.00 | 0.00 | 82 | 1000.1 |
| 20260507050342 | 26 | 58 | 1.6 | 1.6 | 0.00 | 0.00 | 0.00 | 81 | 999.9 |
| 20260507045839 | 26 | 151 | 3.2 | 4.8 | 0.00 | 0.00 | 0.00 | 81 | 999.9 |
| 20260507045335 | 26 | 277 | 0.0 | 1.6 | 0.00 | 0.00 | 0.00 | 81 | 999.9 |
| 20260507044833 | 26 | 145 | 3.2 | 3.2 | 0.00 | 0.00 | 0.00 | 82 | 1000.0 |
| 20260507044329 | 25 | 56 | 1.6 | 3.2 | 0.00 | 0.00 | 0.00 | 82 | 999.9 |
| 20260507043825 | 25 | 67 | 3.2 | 3.2 | 0.00 | 0.00 | 0.00 | 82 | 999.4 |
| 20260507043322 | 26 | 68 | 3.2 | 6.4 | 0.00 | 0.00 | 0.00 | 82 | 1000.0 |
| 20260507042818 | 26 | 129 | 1.6 | 3.2 | 0.00 | 0.00 | 0.00 | 82 | 1000.2 |
| 20260507042314 | 26 | 144 | 1.6 | 1.6 | 0.00 | 0.00 | 0.00 | 82 | 1000.3 |
| 20260507041811 | 26 | 346 | 3.2 | 4.8 | 0.00 | 0.00 | 0.00 | 82 | 1000.3 |
| 20260507041308 | 26 | 120 | 1.6 | 3.2 | 0.00 | 0.00 | 0.00 | 82 | 1000.4 |
| 20260507040805 | 26 | 87 | 1.6 | 1.6 | 0.00 | 0.00 | 0.00 | 82 | 1000.5 |
| 20260507040301 | 26 | 62 | 1.6 | 3.2 | 0.00 | 0.00 | 0.00 | 82 | 1000.6 |
| 20260507035757 | 26 | 158 | 3.2 | 3.2 | 0.00 | 0.00 | 0.00 | 82 | 1001.0 |
| 20260507035252 | 26 | 152 | 3.2 | 4.8 | 0.00 | 0.00 | 0.00 | 82 | 1000.9 |
| 20260507034750 | 26 | 262 | 4.8 | 6.4 | 0.00 | 0.00 | 0.00 | 82 | 1000.8 |
| 20260507034246 | 26 | 190 | 3.2 | 4.8 | 0.00 | 0.00 | 0.00 | 83 | 1000.9 |
| 20260507033745 | 26 | 66 | 4.8 | 4.8 | 0.00 | 0.00 | 0.00 | 83 | 1000.8 |
| 20260507033242 | 25 | 359 | 1.6 | 3.2 | 0.00 | 0.00 | 0.00 | 84 | 1000.7 |
| 20260507032739 | 25 | 76 | 3.2 | 4.8 | 0.00 | 0.00 | 0.00 | 85 | 1000.7 |
| 20260507032235 | 25 | 9 | 3.2 | 3.2 | 0.00 | 0.00 | 0.00 | 86 | 1000.8 |
| 20260507031732 | 25 | 99 | 0.0 | 0.0 | 0.00 | 0.00 | 0.00 | 87 | 1000.9 |
| 20260507031229 | 25 | 54 | 4.8 | 6.4 | 0.00 | 0.00 | 0.00 | 87 | 1000.7 |
| 20260507030726 | 25 | 84 | 8.0 | 12.9 | 0.00 | 0.00 | 0.00 | 88 | 1000.8 |
| 20260507030223 | 25 | 16 | 3.2 | 4.8 | 0.00 | 0.00 | 0.00 | 88 | 1000.7 |
| 20260507025720 | 25 | 237 | 1.6 | 1.6 | 0.00 | 0.00 | 0.00 | 88 | 1000.8 |
| 20260507025217 | 25 | 14 | 6.4 | 11.3 | 0.00 | 0.00 | 0.00 | 88 | 1000.8 |
| 20260507024716 | 25 | 137 | 1.6 | 3.2 | 0.00 | 0.00 | 0.00 | 88 | 1000.8 |
| 20260507024212 | 25 | 120 | 3.2 | 6.4 | 0.00 | 0.00 | 0.00 | 89 | 1000.9 |
| 20260507023708 | 25 | 140 | 1.6 | 3.2 | 0.00 | 0.00 | 0.00 | 88 | 1001.0 |
| 20260507023205 | 25 | 151 | 1.6 | 3.2 | 0.00 | 0.00 | 0.00 | 88 | 1001.1 |
| 20260507022702 | 25 | 98 | 8.0 | 11.3 | 0.00 | 0.00 | 0.00 | 88 | 1001.1 |
| 20260507022158 | 25 | 75 | 4.8 | 6.4 | 0.00 | 0.00 | 0.00 | 88 | 1001.0 |
| 20260507021654 | 25 | 88 | 4.8 | 6.4 | 0.00 | 0.00 | 0.00 | 87 | 1001.2 |
| 20260507021149 | 25 | 331 | 8.0 | 12.9 | 0.00 | 0.00 | 0.00 | 87 | 1001.1 |
| 20260507020648 | 25 | 33 | 1.6 | 3.2 | 0.00 | 0.00 | 0.00 | 87 | 1000.9 |
| 20260507020144 | 25 | 77 | 3.2 | 4.8 | 0.00 | 0.00 | 0.00 | 87 | 1001.0 |
| 20260507015643 | 25 | 344 | 8.0 | 12.9 | 0.00 | 0.00 | 0.00 | 87 | 1001.2 |
| 20260507015140 | 25 | 327 | 4.8 | 6.4 | 0.00 | 0.00 | 0.00 | 86 | 1001.3 |
| 20260507014636 | 25 | 38 | 6.4 | 11.3 | 0.00 | 0.00 | 0.00 | 86 | 1001.1 |
| 20260507014132 | 25 | 38 | 4.8 | 9.7 | 0.00 | 0.00 | 0.00 | 86 | 1001.1 |
| 20260507013629 | 25 | 76 | 1.6 | 3.2 | 0.00 | 0.00 | 0.00 | 86 | 1001.4 |
| 20260507013126 | 25 | 345 | 12.9 | 24.1 | 0.00 | 0.00 | 0.00 | 87 | 1001.3 |
| 20260507012623 | 25 | 100 | 6.4 | 14.5 | 0.00 | 0.00 | 0.00 | 88 | 1001.0 |
| 20260507012119 | 25 | 45 | 9.7 | 12.9 | 0.00 | 0.00 | 0.00 | 89 | 1000.8 |
| 20260507011617 | 25 | 55 | 6.4 | 6.4 | 0.00 | 0.00 | 0.00 | 89 | 1000.9 |
| 20260507011113 | 25 | 52 | 9.7 | 11.3 | 0.00 | 0.00 | 0.00 | 89 | 1000.9 |
| 20260507010608 | 25 | 312 | 3.2 | 9.7 | 0.00 | 0.00 | 0.00 | 89 | 1000.9 |
| 20260507010104 | 25 | 348 | 3.2 | 6.4 | 0.00 | 0.00 | 0.00 | 89 | 1001.4 |
| 20260507005601 | 25 | 28 | 1.6 | 4.8 | 0.00 | 0.00 | 0.00 | 90 | 1001.7 |
| 20260507005058 | 25 | 18 | 3.2 | 4.8 | 0.00 | 0.00 | 0.00 | 90 | 1001.8 |
| 20260507004555 | 25 | 56 | 12.9 | 20.9 | 0.00 | 0.00 | 0.00 | 91 | 1002.1 |
| 20260507004052 | 25 | 279 | 6.4 | 9.7 | 0.00 | 0.00 | 0.00 | 91 | 1002.4 |
| 20260507003548 | 24 | 40 | 4.8 | 6.4 | 0.00 | 0.00 | 0.00 | 91 | 1002.2 |
| 20260507003043 | 24 | 114 | 4.8 | 9.7 | 0.00 | 0.00 | 0.00 | 91 | 1002.0 |
| 20260507002540 | 24 | 5 | 6.4 | 9.7 | 0.00 | 0.00 | 0.00 | 91 | 1001.9 |
| 20260507002036 | 24 | 75 | 11.3 | 20.9 | 0.00 | 0.00 | 0.00 | 91 | 1002.3 |
| 20260507001533 | 24 | 50 | 3.2 | 4.8 | 0.00 | 0.00 | 0.00 | 91 | 1002.7 |
| 20260507001030 | 24 | 72 | 16.1 | 22.5 | 0.00 | 0.00 | 0.00 | 91 | 1002.6 |
| 20260507000526 | 24 | 75 | 6.4 | 9.7 | 0.00 | 0.00 | 0.00 | 91 | 1003.1 |
| 20260507000023 | 24 | 39 | 8.0 | 9.7 | 0.00 | 0.00 | 0.00 | 91 | 1003.3 |
| 20260506235520 | 24 | 68 | 4.8 | 4.8 | 0.00 | 0.00 | 0.00 | 90 | 1003.8 |
| 20260506235015 | 24 | 35 | 6.4 | 9.7 | 0.00 | 0.00 | 0.00 | 90 | 1004.2 |
| 20260506234513 | 24 | 320 | 4.8 | 4.8 | 0.00 | 0.00 | 0.00 | 90 | 1004.3 |
| 20260506234010 | 24 | 132 | 6.4 | 6.4 | 0.00 | 0.00 | 0.00 | 90 | 1004.6 |
| 20260506233506 | 25 | 51 | 6.4 | 11.3 | 0.00 | 0.00 | 0.00 | 90 | 1004.9 |
| 20260506233003 | 24 | 109 | 1.6 | 1.6 | 0.00 | 0.00 | 0.00 | 90 | 1004.9 |
| 20260506232459 | 25 | 163 | 1.6 | 1.6 | 0.00 | 0.00 | 0.00 | 89 | 1005.0 |
| 20260506231955 | 25 | 64 | 3.2 | 4.8 | 0.00 | 0.00 | 0.00 | 89 | 1005.3 |
| 20260506231453 | 25 | 322 | 3.2 | 3.2 | 0.00 | 0.00 | 0.00 | 89 | 1005.6 |
| 20260506230950 | 25 | 79 | 3.2 | 4.8 | 0.00 | 0.00 | 0.00 | 89 | 1005.6 |
| 20260506230446 | 25 | 111 | 6.4 | 6.4 | 0.00 | 0.00 | 0.00 | 89 | 1005.6 |
| 20260506225942 | 25 | 79 | 3.2 | 4.8 | 0.00 | 0.00 | 0.00 | 89 | 1005.5 |
| 20260506225440 | 25 | 90 | 3.2 | 4.8 | 0.00 | 0.00 | 0.00 | 88 | 1005.9 |
| 20260506224937 | 25 | 52 | 3.2 | 4.8 | 0.00 | 0.00 | 0.00 | 88 | 1005.9 |
| 20260506224434 | 25 | 354 | 0.0 | 0.0 | 0.00 | 0.00 | 0.00 | 88 | 1006.0 |
| 20260506223931 | 25 | 122 | 1.6 | 1.6 | 0.00 | 0.00 | 0.00 | 88 | 1006.2 |
| 20260506223426 | 25 | 54 | 0.0 | 1.6 | 0.00 | 0.00 | 0.00 | 88 | 1006.2 |
| 20260506222924 | 25 | 93 | 3.2 | 4.8 | 0.00 | 0.00 | 0.00 | 88 | 1006.2 |
| 20260506222420 | 25 | 108 | 1.6 | 3.2 | 0.00 | 0.00 | 0.00 | 88 | 1006.4 |
| 20260506221917 | 25 | 17 | 1.6 | 3.2 | 0.00 | 0.00 | 0.00 | 88 | 1006.3 |
| 20260506221414 | 25 | 148 | 0.0 | 0.0 | 0.00 | 0.00 | 0.00 | 87 | 1006.3 |
| 20260506220912 | 25 | 45 | 4.8 | 6.4 | 0.00 | 0.00 | 0.00 | 87 | 1006.2 |
| 20260506220407 | 25 | 39 | 3.2 | 3.2 | 0.00 | 0.00 | 0.00 | 87 | 1006.2 |
| 20260506215904 | 25 | 103 | 3.2 | 3.2 | 0.00 | 0.00 | 0.00 | 87 | 1006.3 |
| 20260506215400 | 25 | 43 | 1.6 | 3.2 | 0.00 | 0.00 | 0.00 | 87 | 1006.2 |
| 20260506214856 | 25 | 82 | 1.6 | 3.2 | 0.00 | 0.00 | 0.00 | 87 | 1006.3 |
| 20260506214353 | 25 | 56 | 1.6 | 3.2 | 0.00 | 0.00 | 0.00 | 86 | 1006.4 |
| 20260506213851 | 25 | 133 | 0.0 | 1.6 | 0.00 | 0.00 | 0.00 | 86 | 1006.2 |
| 20260506213348 | 25 | 136 | 3.2 | 4.8 | 0.00 | 0.00 | 0.00 | 86 | 1006.3 |
| 20260506212845 | 25 | 101 | 3.2 | 4.8 | 0.00 | 0.00 | 0.00 | 86 | 1006.3 |
| 20260506212341 | 25 | 125 | 0.0 | 1.6 | 0.00 | 0.00 | 0.00 | 86 | 1006.2 |
| 20260506211836 | 25 | 114 | 3.2 | 4.8 | 0.00 | 0.00 | 0.00 | 85 | 1006.1 |
| 20260506211332 | 25 | 137 | 0.0 | 0.0 | 0.00 | 0.00 | 0.00 | 85 | 1006.1 |
| 20260506210830 | 25 | 96 | 1.6 | 3.2 | 0.00 | 0.00 | 0.00 | 85 | 1006.2 |
| 20260506210327 | 25 | 107 | 1.6 | 1.6 | 0.00 | 0.00 | 0.00 | 85 | 1006.1 |
| 20260506205824 | 25 | 137 | 0.0 | 1.6 | 0.00 | 0.00 | 0.00 | 84 | 1006.3 |
| 20260506205320 | 26 | 107 | 0.0 | 1.6 | 0.00 | 0.00 | 0.00 | 84 | 1006.4 |
| 20260506204816 | 26 | 73 | 6.4 | 9.7 | 0.00 | 0.00 | 0.00 | 83 | 1006.2 |
| 20260506204314 | 26 | 80 | 0.0 | 1.6 | 0.00 | 0.00 | 0.00 | 83 | 1006.1 |
| 20260506203812 | 26 | 64 | 9.7 | 12.9 | 0.00 | 0.00 | 0.00 | 82 | 1006.1 |
| 20260506203309 | 26 | 53 | 3.2 | 4.8 | 0.00 | 0.00 | 0.00 | 82 | 1006.3 |
| 20260506202805 | 26 | 163 | 0.0 | 1.6 | 0.00 | 0.00 | 0.00 | 81 | 1006.4 |
| 20260506202305 | 26 | 86 | 1.6 | 1.6 | 0.00 | 0.00 | 0.00 | 81 | 1006.3 |
| 20260506201759 | 26 | 100 | 3.2 | 3.2 | 0.00 | 0.00 | 0.00 | 80 | 1006.6 |
| 20260506201256 | 27 | 77 | 1.6 | 3.2 | 0.00 | 0.00 | 0.00 | 79 | 1006.5 |
| 20260506200753 | 26 | 18 | 6.4 | 6.4 | 0.00 | 0.00 | 0.00 | 80 | 1006.6 |
| 20260506200249 | 27 | 32 | 4.8 | 6.4 | 0.00 | 0.00 | 0.00 | 79 | 1006.5 |
| 20260506195746 | 27 | 46 | 6.4 | 9.7 | 0.00 | 0.00 | 0.00 | 79 | 1006.6 |
| 20260506195242 | 27 | 88 | 3.2 | 4.8 | 0.00 | 0.00 | 0.00 | 77 | 1006.7 |
| 20260506194739 | 27 | 132 | 1.6 | 1.6 | 0.00 | 0.00 | 0.00 | 78 | 1006.8 |
| 20260506194236 | 27 | 82 | 3.2 | 4.8 | 0.00 | 0.00 | 0.00 | 77 | 1006.8 |
| 20260506193734 | 27 | 37 | 3.2 | 3.2 | 0.00 | 0.00 | 0.00 | 77 | 1006.9 |
| 20260506193230 | 27 | 32 | 4.8 | 4.8 | 0.00 | 0.00 | 0.00 | 77 | 1007.0 |
| 20260506192727 | 27 | 91 | 4.8 | 6.4 | 0.00 | 0.00 | 0.00 | 77 | 1007.2 |